Powrót do katalogu

COSMOS 2114

AktywnyMilitariaPO
NORAD 21028·PAYLOAD·🇷🇺 Russia

Wystrzelony Dec 22, 1990 z Plesetsk Cosmodrome

Loading…

Następne Przeloty (najbliższe 24 godziny)

TLE

ŚwieżeSource: Space-Track

Epoka: Sep 14, 2026, 04:22 UTC

1 21028U 90114A   26257.18199187  .00000027  00000-0  92541-4 0  9998
2 21028  82.5818 176.8853 0006323  87.1180  76.8405 12.62805111646625

Śledź COSMOS 2114 w czasie rzeczywistym z AllMySat

Download on the App Store